User: anonymous   Login
Location: Unspecified
(0.0000°N, 0.0000°E)
Time: 12:07:14
(UTC+00:00)
Language:

USA 238 DEB - Orbit

View from above orbital plane
View from above orbital plane
View from above satellite
View from above satellite

Ground track
Ground track

The orbit data is extracted from the following two-line orbital elements,

1 38773U 12048P   18311.18143298 0.00000000  00000-0  00000-0 0    06
2 38773  63.4480  88.5426 0069000   2.9068 357.0931 13.40770142    05
Epoch (UTC): 07 November 2018 04:21:15
Eccentricity: 0.0069000
inclination: 63.4480°
perigee height: 1055 km
apogee height: 1158 km
right ascension of ascending node: 88.5426°
argument of perigee: 2.9068°
revolutions per day: 13.40770142
mean anomaly at epoch: 357.0931°
orbit number at epoch: 0

The dashed part of the orbit path shows where the satellite is in the earth's shadow,  

DLR